Location: *
(43.0409°N, 0.1694°E)
Time: 11:59:09
(UTC+00:00)

NOAA 11 - Pass Details

Date: 03 October 2023
Orbit: 832 x 849 km, 98.5° (Epoch: 01 December)

Event Time Altitude Azimuth Distance (km) Brightness Sun altitude
Rises 03:49:50 0° 15° (NNE) 3,423 7.8 -24.0°
Reaches altitude 10° 03:52:14 10° 17° (NNE) 2,481 7.0 -23.6°
Maximum altitude 03:57:45 76° 103° (ESE) 876 4.3 -22.6°
Enters shadow 04:02:40 13° 188° (S) 2,248 6.2 -21.8°
